When you browse on this site, cookies collect data to enhance your experience and personalize the content and advertising you see.
Visit our Privacy Policy to learn more. By continuing to use the site, you agree to this use of cookies and data.
  • In Portugal
  • List of Countries
  • For 7 days
  • Water Temperature
  • Satellite Maps
  • Weather Map
  • Weather Widgets
  • user-avatar
    Login

    Hourly Weather Karbala

    Today, 23 March, Saturday

    Time Temperature Precipitation Wind Pressure Humidity
    00:00 +21°C° 0 mm 1 mps 758 mmHg 27%
    01:00 +21°C° 0 mm 1 mps 758 mmHg 28%
    02:00 +20°C° 0 mm 1 mps 758 mmHg 29%
    03:00 +19°C° 0 mm 1 mps 757 mmHg 30%
    04:00 +19°C° 0 mm 1 mps 757 mmHg 31%
    05:00 +18°C° 0 mm 2 mps 758 mmHg 32%
    06:00 +17°C° 0 mm 2 mps 758 mmHg 32%
    07:00 +19°C° 0 mm 2 mps 758 mmHg 29%
    08:00 +20°C° 0 mm 2 mps 758 mmHg 27%
    09:00 +23°C° 0 mm 2 mps 758 mmHg 24%
    10:00 +24°C° 0 mm 1 mps 758 mmHg 22%
    11:00 +25°C° 0 mm 1 mps 758 mmHg 20%
    12:00 +26°C° 0 mm 1 mps 757 mmHg 18%
    13:00 +26°C° 0 mm 1 mps 757 mmHg 18%
    14:00 +27°C° 0 mm 1 mps 756 mmHg 18%
    15:00 +27°C° 0 mm 1 mps 755 mmHg 18%
    16:00 +27°C° 0.1 mm 2 mps 755 mmHg 20%
    17:00 +26°C° 0.1 mm 2 mps 755 mmHg 22%
    18:00 +26°C° 0.1 mm 3 mps 754 mmHg 23%
    19:00 +26°C° 0 mm 4 mps 754 mmHg 24%
    20:00 +25°C° 0 mm 5 mps 754 mmHg 25%
    21:00 +23°C° 0 mm 6 mps 754 mmHg 25%
    22:00 +23°C° 0.1 mm 6 mps 754 mmHg 27%
    23:00 +22°C° 0.1 mm 6 mps 753 mmHg 28%

    Tomorrow, 24 March, Sunday

    Time Temperature Precipitation Wind Pressure Humidity
    00:00 +22°C° 0.1 mm 6 mps 753 mmHg 29%
    01:00 +22°C° 0 mm 6 mps 752 mmHg 28%
    02:00 +21°C° 0 mm 6 mps 752 mmHg 27%
    03:00 +21°C° 0 mm 7 mps 751 mmHg 25%
    04:00 +22°C° 0 mm 7 mps 750 mmHg 26%
    05:00 +22°C° 0 mm 7 mps 750 mmHg 26%
    06:00 +22°C° 0 mm 8 mps 749 mmHg 27%
    07:00 +22°C° 0 mm 8 mps 749 mmHg 28%
    08:00 +23°C° 0 mm 8 mps 750 mmHg 29%
    09:00 +24°C° 0 mm 9 mps 750 mmHg 30%
    10:00 +26°C° 0 mm 8 mps 749 mmHg 28%
    11:00 +26°C° 0 mm 8 mps 749 mmHg 26%
    12:00 +27°C° 0 mm 7 mps 749 mmHg 24%
    13:00 +27°C° 0 mm 8 mps 748 mmHg 25%
    14:00 +27°C° 0 mm 9 mps 748 mmHg 26%
    15:00 +27°C° 0 mm 10 mps 747 mmHg 26%
    16:00 +26°C° 0 mm 9 mps 747 mmHg 30%
    17:00 +26°C° 0 mm 9 mps 747 mmHg 33%
    18:00 +24°C° 0 mm 8 mps 747 mmHg 37%
    19:00 +23°C° 0 mm 8 mps 747 mmHg 39%
    20:00 +23°C° 0 mm 8 mps 747 mmHg 42%
    21:00 +22°C° 0 mm 8 mps 747 mmHg 45%
    22:00 +22°C° 0 mm 8 mps 747 mmHg 52%
    23:00 +21°C° 0 mm 7 mps 747 mmHg 60%

    Day after tomorrow, 25 March, Monday

    Time Temperature Precipitation Wind Pressure Humidity
    00:00 +21°C° 0 mm 6 mps 747 mmHg 67%
    01:00 +20°C° 1.1 mm 6 mps 746 mmHg 72%
    02:00 +18°C° 1.1 mm 7 mps 745 mmHg 78%
    03:00 +17°C° 1.1 mm 8 mps 745 mmHg 83%
    04:00 +17°C° 2.6 mm 8 mps 745 mmHg 83%
    05:00 +18°C° 2.6 mm 8 mps 744 mmHg 83%
    06:00 +18°C° 2.6 mm 9 mps 744 mmHg 83%
    07:00 +18°C° 2.8 mm 8 mps 744 mmHg 80%
    08:00 +20°C° 2.8 mm 7 mps 745 mmHg 78%
    09:00 +20°C° 2.8 mm 7 mps 745 mmHg 76%
    10:00 +22°C° 0.7 mm 7 mps 745 mmHg 66%
    11:00 +23°C° 0.7 mm 7 mps 744 mmHg 56%
    12:00 +26°C° 0.7 mm 7 mps 744 mmHg 46%
    13:00 +26°C° 0 mm 7 mps 744 mmHg 36%
    14:00 +27°C° 0 mm 7 mps 744 mmHg 26%
    15:00 +28°C° 0 mm 8 mps 744 mmHg 16%
    16:00 +27°C° 0 mm 7 mps 745 mmHg 18%
    17:00 +26°C° 0 mm 6 mps 745 mmHg 19%
    18:00 +25°C° 0 mm 5 mps 745 mmHg 21%
    19:00 +25°C° 0 mm 4 mps 746 mmHg 24%
    20:00 +24°C° 0 mm 2 mps 746 mmHg 26%
    21:00 +23°C° 0 mm 1 mps 747 mmHg 29%
    22:00 +23°C° 0 mm 2 mps 747 mmHg 28%
    23:00 +22°C° 0 mm 3 mps 747 mmHg 28%

    26 March, Tuesday

    Time Temperature Precipitation Wind Pressure Humidity
    00:00 +22°C° 0 mm 4 mps 748 mmHg 28%
    01:00 +21°C° 0 mm 4 mps 748 mmHg 33%
    02:00 +20°C° 0 mm 5 mps 748 mmHg 38%
    03:00 +19°C° 0 mm 6 mps 748 mmHg 44%
    04:00 +17°C° 0.1 mm 6 mps 749 mmHg 46%
    05:00 +16°C° 0.1 mm 6 mps 749 mmHg 48%
    06:00 +16°C° 0.1 mm 6 mps 750 mmHg 50%
    07:00 +16°C° 0.1 mm 6 mps 750 mmHg 49%
    08:00 +16°C° 0.1 mm 6 mps 751 mmHg 49%
    09:00 +17°C° 0.1 mm 6 mps 752 mmHg 48%
    10:00 +19°C° 0 mm 6 mps 752 mmHg 45%
    11:00 +18°C° 0 mm 7 mps 752 mmHg 42%
    12:00 +20°C° 0 mm 7 mps 753 mmHg 39%
    13:00 +20°C° 0 mm 7 mps 752 mmHg 39%
    14:00 +20°C° 0 mm 7 mps 752 mmHg 38%
    15:00 +21°C° 0 mm 7 mps 752 mmHg 37%
    16:00 +21°C° 0 mm 6 mps 752 mmHg 36%
    17:00 +21°C° 0 mm 5 mps 753 mmHg 35%
    18:00 +21°C° 0 mm 4 mps 753 mmHg 33%
    19:00 +20°C° 0 mm 3 mps 754 mmHg 35%
    20:00 +20°C° 0 mm 2 mps 754 mmHg 37%
    21:00 +21°C° 0 mm 1 mps 755 mmHg 39%
    22:00 +21°C° 0 mm 1 mps 755 mmHg 39%
    23:00 +20°C° 0 mm 2 mps 756 mmHg 38%

    27 March, Wednesday

    Time Temperature Precipitation Wind Pressure Humidity
    00:00 +19°C° 0 mm 2 mps 756 mmHg 38%
    01:00 +19°C° 0 mm 2 mps 756 mmHg 40%
    02:00 +18°C° 0 mm 2 mps 756 mmHg 41%
    03:00 +18°C° 0 mm 2 mps 756 mmHg 43%
    04:00 +18°C° 0 mm 2 mps 757 mmHg 44%
    05:00 +17°C° 0 mm 2 mps 757 mmHg 45%
    06:00 +17°C° 0 mm 2 mps 757 mmHg 46%
    07:00 +18°C° 0 mm 2 mps 758 mmHg 45%
    08:00 +19°C° 0 mm 2 mps 759 mmHg 43%
    09:00 +21°C° 0 mm 1 mps 759 mmHg 41%
    10:00 +21°C° 0 mm 2 mps 759 mmHg 38%
    11:00 +23°C° 0 mm 2 mps 759 mmHg 36%
    12:00 +24°C° 0 mm 2 mps 759 mmHg 33%
    13:00 +24°C° 0 mm 2 mps 759 mmHg 30%
    14:00 +25°C° 0 mm 2 mps 758 mmHg 27%
    15:00 +26°C° 0 mm 2 mps 758 mmHg 24%
    16:00 +25°C° 0 mm 2 mps 758 mmHg 25%
    17:00 +25°C° 0 mm 1 mps 758 mmHg 25%
    18:00 +25°C° 0 mm 1 mps 758 mmHg 26%
    19:00 +24°C° 0 mm 2 mps 758 mmHg 27%
    20:00 +24°C° 0 mm 3 mps 758 mmHg 28%
    21:00 +22°C° 0 mm 4 mps 759 mmHg 29%
    22:00 +22°C° 0 mm 4 mps 758 mmHg 30%
    23:00 +21°C° 0 mm 5 mps 758 mmHg 31%

    28 March, Thursday

    Time Temperature Precipitation Wind Pressure Humidity
    00:00 +21°C° 0 mm 5 mps 758 mmHg 32%
    01:00 +20°C° 0 mm 5 mps 758 mmHg 34%
    02:00 +20°C° 0 mm 5 mps 757 mmHg 35%
    03:00 +20°C° 0 mm 5 mps 757 mmHg 37%
    04:00 +19°C° 0 mm 5 mps 757 mmHg 37%
    05:00 +19°C° 0 mm 5 mps 758 mmHg 37%
    06:00 +19°C° 0 mm 4 mps 758 mmHg 38%
    07:00 +21°C° 0 mm 5 mps 758 mmHg 33%
    08:00 +22°C° 0 mm 6 mps 758 mmHg 28%
    09:00 +23°C° 0 mm 7 mps 758 mmHg 23%
    10:00 +26°C° 0 mm 7 mps 758 mmHg 22%
    11:00 +27°C° 0 mm 7 mps 757 mmHg 20%
    12:00 +28°C° 0 mm 7 mps 757 mmHg 18%
    13:00 +29°C° 0 mm 7 mps 756 mmHg 17%
    14:00 +29°C° 0 mm 7 mps 755 mmHg 16%
    15:00 +30°C° 0 mm 7 mps 754 mmHg 15%
    16:00 +30°C° 0 mm 6 mps 753 mmHg 15%
    17:00 +29°C° 0 mm 6 mps 753 mmHg 16%
    18:00 +29°C° 0 mm 5 mps 753 mmHg 17%
    19:00 +28°C° 0.1 mm 5 mps 752 mmHg 20%
    20:00 +27°C° 0.1 mm 5 mps 752 mmHg 23%
    21:00 +26°C° 0.1 mm 5 mps 752 mmHg 26%
    22:00 +25°C° 0.1 mm 4 mps 752 mmHg 27%
    23:00 +25°C° 0.1 mm 3 mps 751 mmHg 28%
    Show more